MOVE-II

Last updated on Thu Nov 21 2024 00:03:40 GMT+0000 (Coordinated Universal Time)

1 43780U 18099Y 24325.13765007 .00055808 00000+0 18863-2 0 9997 2 43780 97.4986 27.8523 0005096 147.9939 212.1612 15.30434721326642
UTC large
Height (km)
Speed (km/s)
/
Latitude / Longitude
Inclination (degrees)
Orbital Period (minutes)
Azimuth
Elevation
Range (km)
Doppler Factor

Next 0 passes for location: London (51.5072 / 0.1276)

Sorry there are no passes over London.